TimeEST,TemperatureF,Dew PointF,Humidity,Sea Level PressureIn,VisibilityMPH,Wind Direction,Wind SpeedMPH,Gust SpeedMPH,PrecipitationIn,Events,Conditions,WindDirDegrees,DateUTC
12:45 AM,15.8,3.2,58,29.97,10.0,WNW,23.0,40.3,N/A,,Scattered Clouds,300,2013-02-18 05:45:00
1:45 AM,15.8,3.2,58,29.99,10.0,WNW,18.4,29.9,N/A,,Clear,300,2013-02-18 06:45:00
4:45 AM,14.0,3.2,62,30.06,10.0,WNW,23.0,29.9,N/A,,Clear,300,2013-02-18 09:45:00
5:45 AM,14.0,3.2,62,30.10,10.0,West,11.5,23.0,N/A,,Clear,270,2013-02-18 10:45:00
6:45 AM,14.0,3.2,62,30.14,10.0,West,17.3,28.8,N/A,,Partly Cloudy,270,2013-02-18 11:45:00
7:45 AM,15.8,5.0,62,30.14,10.0,WNW,19.6,34.5,N/A,,Clear,290,2013-02-18 12:45:00
8:45 AM,17.6,6.8,63,30.17,10.0,West,20.7,28.8,N/A,,Clear,270,2013-02-18 13:45:00
9:45 AM,19.4,6.8,58,30.18,20.0,WNW,17.3,28.8,N/A,,Clear,290,2013-02-18 14:45:00
10:45 AM,23.0,8.6,54,30.20,20.0,WNW,17.3,28.8,N/A,,Clear,290,2013-02-18 15:45:00
11:45 AM,24.8,8.6,50,30.19,20.0,WNW,17.3,28.8,N/A,,Clear,290,2013-02-18 16:45:00
12:45 PM,26.6,8.6,47,30.18,20.0,WNW,20.7,32.2,N/A,,Clear,290,2013-02-18 17:45:00
1:45 PM,28.4,12.2,51,30.16,20.0,NW,17.3,32.2,N/A,,Clear,310,2013-02-18 18:45:00
2:45 PM,30.2,12.2,47,30.15,20.0,WNW,17.3,32.2,N/A,,Clear,300,2013-02-18 19:45:00
3:45 PM,32.0,10.4,41,30.16,20.0,WNW,17.3,28.8,N/A,,Clear,300,2013-02-18 20:45:00
4:45 PM,30.2,12.2,47,30.16,20.0,WNW,16.1,25.3,N/A,,Clear,300,2013-02-18 21:45:00
5:45 PM,30.2,10.4,44,30.17,10.0,West,8.1,-,N/A,,Clear,280,2013-02-18 22:45:00
6:45 PM,26.6,12.2,55,30.18,10.0,West,9.2,-,N/A,,Clear,280,2013-02-18 23:45:00
8:45 PM,28.4,10.4,47,30.18,10.0,WSW,6.9,-,N/A,,Clear,240,2013-02-19 01:45:00
9:45 PM,28.4,10.4,47,30.17,10.0,SW,5.8,-,N/A,,Clear,230,2013-02-19 02:45:00
10:45 PM,28.4,10.4,47,30.17,10.0,SW,5.8,-,N/A,,Clear,220,2013-02-19 03:45:00
11:45 PM,28.4,14.0,55,30.17,10.0,Calm,Calm,-,N/A,,Clear,0,2013-02-19 04:45:00